User: anonymous   Login
Location: Unspecified
(0.0000°N, 0.0000°E)
Time: 04:12:32
(UTC+00:00)
Language:

PERSEUS M2 - Orbit

View from above orbital plane
View from above orbital plane
View from above satellite
View from above satellite

Ground track
Ground track

The orbit data is extracted from the following two-line orbital elements,

1 40037U 14033AD  19054.04436688  .00000055  00000-0  12477-4 0  9998
2 40037  97.8956 328.9494 0015859  87.6306 272.6725 14.86427655253792
Epoch (UTC): 23 February 2019 01:03:53
Eccentricity: 0.0015859
inclination: 97.8956°
perigee height: 598 km
apogee height: 620 km
right ascension of ascending node: 328.9494°
argument of perigee: 87.6306°
revolutions per day: 14.86427655
mean anomaly at epoch: 272.6725°
orbit number at epoch: 25379

The dashed part of the orbit path shows where the satellite is in the earth's shadow,  

DLR